Theta_e
344 339 336 331 320 322 316 316 321 323 321 327 329 326 327 332 324 317 344 347 347 351 351 349 354 354 354 355 355 355 357 358 359 359 358 358 357 357 357 357 356 355 354 353 352 352 352 352 351
340 333 329 323 316 310 315 321 318 323 326 330 331 332 330 329 337 338 341 349 348 351 349 349 355 354 354 354 355 356 357 357 358 358 358 357 356 356 355 355 354 352 352 351 350 350 350 351 350
332 325 320 317 316 309 313 320 322 325 327 328 326 335 334 332 339 341 347 349 349 349 346 350 354 355 353 354 354 355 356 357 357 357 357 356 355 355 354 353 352 352 351 351 350 350 350 351 351
324 320 317 316 310 311 317 324 327 325 325 329 332 330 340 346 341 346 348 348 346 347 346 350 352 354 353 353 354 354 355 356 356 357 356 355 354 353 352 352 352 352 352 352 351 351 351 351 351
318 317 312 313 315 320 324 326 327 322 325 327 331 329 335 342 349 347 346 346 345 347 347 347 350 352 353 351 353 353 354 355 355 355 355 354 353 353 353 353 353 353 353 352 352 353 353 352 352
311 314 310 309 313 322 325 328 327 324 330 331 332 333 334 341 344 345 345 345 347 347 347 347 351 351 353 350 351 352 353 354 354 354 354 353 353 353 353 353 353 354 354 354 354 354 356 355 355
308 310 306 310 313 319 323 329 325 323 327 330 335 329 333 338 341 344 345 346 346 348 346 348 346 350 351 352 352 353 351 352 352 353 353 353 353 353 353 354 354 354 355 356 356 357 357 357 357
310 311 305 314 311 315 326 325 327 326 326 333 333 329 330 337 342 343 343 340 340 342 343 345 347 347 348 349 353 353 352 351 352 352 353 353 353 352 350 350 352 352 354 355 357 358 359 359 358
307 305 304 306 314 317 327 324 327 330 329 333 336 336 341 342 342 340 339 340 338 336 340 343 344 346 347 347 348 352 352 352 352 353 351 352 352 350 348 351 349 350 350 352 353 353 355 355 357
306 304 305 308 316 320 326 324 326 325 326 329 335 341 342 342 339 337 336 333 330 331 333 339 343 346 347 347 349 352 351 353 355 353 352 351 349 349 348 347 347 347 347 347 347 346 348 350 347
304 304 307 312 320 327 326 325 327 325 323 329 332 336 338 336 337 333 330 329 327 327 329 331 334 339 343 344 348 349 349 350 351 350 349 349 348 351 351 351 350 350 346 348 348 349 348 348 348
302 305 316 325 325 325 324 327 321 323 321 330 333 329 329 329 329 326 322 325 325 325 326 329 332 338 343 347 346 345 347 347 345 343 345 351 350 350 348 346 345 344 342 344 345 344 345 346 347
301 312 326 326 324 325 326 321 318 317 321 326 326 324 322 321 322 323 322 322 323 324 325 327 333 338 341 340 335 335 335 335 335 336 338 345 346 342 341 338 338 337 337 337 339 339 340 342 344
306 324 324 325 323 320 320 317 320 315 321 322 325 320 319 319 322 321 322 320 321 322 323 326 329 333 333 331 331 329 329 329 329 330 330 332 333 332 332 332 331 332 332 332 333 333 334 338 338
323 319 323 322 322 318 322 316 317 316 320 320 321 317 316 316 319 320 319 318 320 320 321 324 326 329 329 328 327 326 326 326 326 326 326 326 327 327 327 327 326 326 326 326 327 329 330 333 332
317 319 309 320 321 319 320 314 314 316 318 317 317 316 314 315 315 317 318 317 317 320 320 321 322 324 324 324 323 323 324 324 322 321 321 322 322 322 322 322 321 321 322 320 320 323 322 327 324
311 304 310 316 321 319 319 317 314 315 318 316 316 315 314 313 314 315 315 315 316 319 319 320 322 321 321 321 321 321 321 319 318 318 318 318 317 318 318 316 316 317 316 315 314 317 317 319 316
302 304 310 311 319 318 317 315 311 313 316 315 314 313 312 312 312 313 314 314 316 317 319 321 320 321 320 322 319 318 316 315 315 314 314 315 314 314 314 313 313 313 311 310 311 314 314 312 312
303 306 305 311 319 317 315 318 310 312 314 313 313 312 312 312 313 313 314 314 315 316 318 320 320 321 320 317 317 316 311 308 307 308 309 309 309 309 312 312 310 310 308 308 309 310 310 309 310
299 301 301 308 317 318 317 314 316 312 313 315 313 312 312 312 311 312 312 313 313 314 316 317 318 320 319 316 313 311 308 306 305 306 307 309 309 310 310 309 307 308 306 307 306 307 306 306 307
299 298 299 300 306 316 311 312 313 311 313 314 315 314 313 312 311 310 310 310 311 312 313 314 316 317 317 316 314 312 311 309 306 306 306 307 307 308 308 307 307 306 305 303 304 305 305 303 305
299 301 301 300 299 295 309 297 307 314 309 309 312 311 312 311 311 310 309 309 310 311 312 313 314 315 315 316 314 314 310 305 304 305 304 306 307 306 307 307 306 306 304 303 302 304 303 304 301
302 304 301 300 299 299 300 298 302 306 307 310 311 311 311 311 309 308 308 309 309 310 310 311 311 311 312 312 311 308 307 306 306 305 306 306 306 306 305 306 306 305 304 304 303 302 302 302 301
305 301 299 299 299 292 298 299 298 303 307 311 313 310 309 309 309 308 308 309 308 309 310 311 310 310 311 310 310 309 307 306 305 305 304 304 304 304 305 305 305 305 305 304 302 302 302 301 301
302 299 293 291 291 290 299 297 300 305 306 309 312 309 308 308 307 306 306 306 307 308 308 309 310 309 310 309 309 308 308 308 306 305 305 305 303 303 304 304 304 304 304 304 303 302 301 301 300
300 300 294 288 289 292 298 294 300 300 303 305 307 309 307 307 307 305 306 306 307 308 308 308 309 308 309 308 308 307 307 305 305 305 304 305 304 304 305 304 303 304 304 303 302 301 299 300 300
300 298 301 297 296 292 297 298 298 302 301 302 305 305 305 306 305 305 306 306 306 307 308 308 308 307 308 307 307 307 307 306 305 305 305 304 306 305 305 304 302 302 302 302 301 299 299 299 299
305 306 298 297 290 289 294 295 298 302 299 299 300 303 304 305 305 305 305 306 307 307 308 309 308 307 307 308 307 306 306 306 304 304 303 304 305 306 304 303 302 301 301 301 300 299 299 298 298
303 302 301 301 298 292 290 296 304 301 300 300 300 302 304 304 304 304 305 306 306 307 306 308 307 306 304 307 306 303 303 303 301 302 302 303 303 305 304 303 301 301 300 301 300 299 299 297 298
306 303 302 297 295 297 295 296 301 299 300 301 299 301 304 304 304 304 304 305 305 306 306 305 305 305 305 305 303 302 304 304 302 301 302 303 303 303 302 301 299 298 298 299 299 298 298 297 296
Wind_Speed
6 4 1 3 2 2 2 1 3 8 5 4 2 2 4 6 3 3 5 9 14 14 12 12 12 12 13 13 13 13 12 11 11 12 12 11 11 10 10 9 9 9 9 9 9 9 8 7 7
6 1 0 0 2 5 1 4 10 6 2 3 7 6 4 4 3 8 9 10 16 14 11 11 11 11 11 12 11 12 12 11 11 11 11 11 10 8 8 8 7 8 8 8 8 7 6 7 7
5 1 2 1 2 4 5 5 3 4 2 5 5 8 3 4 6 10 9 17 15 13 11 11 12 11 11 11 9 9 10 10 10 9 9 9 8 7 6 6 6 7 7 7 7 6 6 7 8
2 3 3 1 1 3 2 4 6 5 4 5 8 10 7 6 6 7 16 16 15 13 10 12 12 11 12 10 8 8 8 7 7 7 6 5 5 5 5 5 7 7 7 7 7 7 7 8 8
0 1 1 1 2 1 5 2 6 3 4 3 1 7 7 5 9 16 15 13 14 13 9 11 12 11 10 11 9 7 6 5 5 4 4 2 2 3 5 6 7 7 7 7 7 8 6 6 8
1 1 2 3 4 2 4 6 7 2 4 6 9 9 5 6 11 13 13 11 11 12 7 8 9 9 8 10 9 5 3 3 3 2 1 1 3 4 6 7 8 8 8 8 8 8 8 7 8
3 2 2 3 4 4 2 6 7 5 7 7 5 7 6 9 11 12 12 10 10 9 8 5 6 7 7 7 7 5 2 1 0 1 3 4 5 7 8 10 10 12 11 10 10 9 10 9 9
3 2 4 5 5 3 7 7 6 6 5 4 3 6 8 13 13 13 12 10 9 7 5 4 3 5 5 5 6 4 4 2 1 3 4 6 6 7 7 8 9 12 12 11 10 10 9 10 10
2 4 7 6 7 4 8 8 3 3 8 5 3 3 17 18 15 13 12 11 9 6 5 4 4 4 3 3 2 5 4 3 3 2 5 4 4 5 6 7 11 10 10 9 8 7 7 8 5
5 7 11 6 8 6 10 8 10 6 10 7 12 15 20 18 15 14 12 11 8 6 6 4 3 4 5 4 4 4 4 2 2 3 3 3 4 4 5 4 6 8 9 8 8 9 4 3 5
6 10 8 4 7 7 11 10 4 13 7 7 17 16 17 17 13 11 9 8 7 6 6 6 5 3 5 5 2 2 2 2 1 2 3 2 2 1 2 2 3 4 7 5 5 5 5 7 5
6 7 4 2 8 8 9 12 8 2 5 10 16 15 15 17 13 12 10 8 8 8 7 7 7 4 4 4 3 3 2 2 2 3 3 1 2 3 3 3 4 4 5 7 6 5 6 6 6
5 1 2 3 7 7 10 5 8 7 9 13 15 12 13 14 13 11 10 7 6 7 7 8 7 6 5 6 5 6 5 4 4 4 6 3 3 4 3 4 4 5 6 7 7 7 7 7 6
1 3 6 5 8 4 10 5 3 6 10 12 14 13 11 13 13 11 9 8 6 5 7 7 7 7 9 8 8 7 6 6 6 7 8 9 5 5 4 4 5 5 6 6 6 7 7 7 7
5 5 6 5 5 3 9 4 4 14 12 13 13 13 11 10 10 8 6 6 5 5 5 6 7 7 9 10 8 7 7 7 7 7 10 10 8 8 6 5 5 6 6 7 6 7 6 6 7
3 3 7 4 6 5 5 16 7 14 14 14 13 13 12 9 9 8 5 5 5 6 7 7 6 8 9 9 8 7 7 8 7 7 7 10 10 9 6 5 6 6 5 6 6 7 7 7 7
2 5 8 4 8 5 10 8 9 14 14 14 13 12 11 11 9 7 6 5 6 6 6 7 8 9 10 10 9 9 10 8 7 7 7 9 10 9 6 6 6 6 5 6 6 5 7 7 8
7 4 5 9 11 9 12 8 10 13 14 14 13 12 11 11 10 9 8 6 6 6 7 7 7 9 9 8 8 8 8 8 7 7 7 9 8 9 7 6 7 6 6 7 7 6 6 6 9
6 5 8 10 6 13 17 15 10 14 14 15 15 15 14 12 10 9 8 7 7 6 6 6 8 8 6 5 5 6 7 7 7 7 10 9 9 10 8 6 6 7 8 9 9 6 7 7 11
7 6 10 3 8 14 16 19 11 16 18 19 18 17 15 13 13 11 9 7 6 7 7 7 7 7 4 4 5 4 5 7 7 7 8 10 11 9 8 7 8 9 8 11 12 12 6 6 10
7 10 9 11 3 7 3 15 14 11 14 17 18 17 17 18 17 13 11 10 9 9 8 8 9 9 7 9 8 8 8 6 6 6 6 8 9 10 9 10 9 10 9 9 11 10 11 7 7
10 16 15 13 8 12 15 14 18 18 17 18 20 21 20 18 15 14 12 11 10 9 9 9 9 9 8 8 7 7 6 7 7 7 7 7 8 10 10 10 11 10 8 10 10 9 10 9 8
10 2 12 13 17 8 7 8 11 5 16 23 26 25 22 20 19 17 15 13 12 11 10 10 11 11 10 9 9 7 9 8 7 7 9 9 8 10 10 10 10 9 7 10 11 11 11 8 8
4 4 4 2 6 10 14 14 13 9 17 22 20 22 22 22 19 17 15 14 13 11 11 10 11 11 10 10 10 11 11 8 7 6 6 6 6 6 9 10 9 8 7 9 8 9 11 9 7
8 7 9 9 8 13 6 14 16 7 7 9 11 21 22 22 21 19 18 15 14 13 12 11 11 11 10 10 10 9 9 9 8 6 5 6 5 6 8 8 7 7 7 8 7 8 9 8 8
9 9 10 18 14 14 7 9 5 4 9 9 8 19 23 23 20 19 18 16 15 14 13 12 11 10 9 9 10 9 8 6 5 6 5 5 5 5 6 7 7 7 7 7 7 6 7 8 6
3 8 5 10 6 11 14 5 4 2 6 5 10 19 22 22 21 20 18 15 15 14 13 13 11 11 9 8 7 7 6 7 6 6 5 5 4 5 6 6 8 8 8 8 7 7 8 7 7
4 3 6 4 12 19 10 6 3 6 4 6 10 15 19 21 20 18 16 15 13 13 12 13 12 10 9 9 8 7 6 6 5 5 4 5 6 6 6 5 6 8 7 7 8 6 7 7 6
4 8 2 1 3 7 10 2 1 7 5 7 10 13 18 20 19 17 15 14 13 13 13 12 11 10 8 7 6 6 6 5 4 4 5 5 4 5 6 5 6 6 7 6 6 5 6 6 6
3 3 3 7 8 4 4 7 3 3 3 7 13 14 18 18 18 17 16 14 13 12 11 10 8 8 8 6 6 7 7 6 5 5 5 5 5 5 4 4 5 6 6 5 6 7 7 7 8
Wind_Direction
122 126 308 240 201 72 45 157 350 102 101 55 130 213 73 38 359 36 132 166 157 150 142 143 141 137 130 130 127 127 127 125 122 121 118 114 111 108 104 96 89 85 77 72 65 55 49 41 38
138 95 218 78 101 106 49 293 149 65 87 133 104 116 59 75 70 115 135 161 153 143 137 146 141 132 133 126 133 131 132 129 128 125 124 123 118 115 107 99 85 79 71 63 57 44 32 21 11
164 220 276 70 112 126 163 225 128 99 36 162 119 55 66 54 90 130 126 143 143 137 143 146 138 133 136 131 135 134 135 134 130 126 127 125 121 111 94 81 69 57 56 40 39 30 9 2 348
216 184 140 298 82 176 220 156 158 162 114 72 120 87 91 45 134 118 140 144 143 137 146 143 144 146 142 144 139 141 144 138 132 131 126 116 104 89 63 44 35 27 24 19 7 359 354 344 335
69 174 326 87 302 189 242 225 186 159 99 95 161 114 84 41 99 128 140 145 140 141 145 144 151 149 151 151 147 152 153 143 137 136 121 101 65 38 27 13 4 6 1 350 349 336 337 329 317
203 296 211 200 272 230 224 219 193 160 138 122 99 101 73 97 112 130 131 137 137 136 132 144 149 153 155 156 157 157 154 136 139 129 97 27 350 357 348 347 342 343 338 326 326 319 316 311 301
235 207 249 178 268 286 145 142 178 147 121 69 120 97 109 113 119 125 130 128 130 132 127 125 152 160 159 164 159 158 165 189 100 15 338 341 339 341 340 343 338 333 326 322 321 317 310 303 295
160 199 185 200 235 247 141 131 125 150 82 106 4 133 147 137 133 130 117 120 121 108 108 113 106 138 170 174 160 166 191 229 288 315 327 336 324 356 359 328 1 333 323 318 314 312 305 303 299
161 188 205 212 201 214 160 157 104 120 120 70 38 101 124 133 140 136 134 132 120 102 102 118 140 133 138 138 186 196 207 230 279 288 14 313 334 342 335 7 354 16 15 18 17 9 350 324 295
209 213 209 211 202 211 173 177 135 156 138 90 95 106 124 135 147 151 153 135 119 114 94 97 120 157 172 189 186 203 218 236 289 291 307 303 331 346 336 3 28 38 26 46 42 33 29 350 7
169 220 218 231 209 189 174 152 126 149 175 154 145 130 127 131 145 135 116 117 119 106 96 78 76 80 197 183 174 209 209 202 208 333 315 289 303 336 17 10 13 5 21 13 6 23 26 18 11
224 232 243 349 198 177 180 139 109 68 81 127 133 129 132 137 143 133 120 123 123 110 97 95 79 88 103 129 92 79 150 141 110 56 9 53 106 81 50 32 20 8 4 358 2 358 360 2 1
223 217 131 110 155 173 144 140 122 105 111 123 126 122 127 123 124 119 121 123 126 109 97 88 97 97 107 106 96 85 80 77 70 56 42 40 69 66 57 44 32 18 1 3 0 356 349 345 348
45 124 114 128 140 107 157 124 174 146 141 132 137 128 128 132 132 130 139 128 115 107 86 85 94 106 107 97 97 98 90 87 72 59 48 51 53 53 52 48 36 27 10 1 353 353 342 337 342
121 130 120 129 143 122 145 177 202 145 154 139 139 129 125 126 128 131 122 112 109 79 78 81 90 89 98 102 97 87 88 86 73 69 54 56 46 52 46 41 31 19 10 358 347 345 340 334 335
124 131 209 146 180 154 232 217 147 157 159 153 151 143 138 133 124 119 110 95 96 88 72 73 76 92 85 85 84 84 75 73 69 62 60 53 52 43 44 42 31 11 8 3 355 350 339 341 338
81 202 212 194 198 162 209 224 162 166 173 161 163 159 154 142 134 124 121 106 95 106 96 85 86 93 98 90 87 80 74 66 60 53 45 48 49 43 41 39 28 10 18 18 1 352 349 347 335
195 214 213 223 188 199 202 233 154 178 183 173 172 169 169 164 152 143 137 118 112 107 113 124 116 120 120 109 107 95 82 70 57 50 41 38 47 43 39 49 36 24 31 29 17 7 16 6 340
206 228 240 238 192 201 222 235 187 186 193 189 185 185 182 176 159 152 140 133 126 117 116 123 140 131 133 125 109 100 87 76 62 55 49 43 47 45 41 41 47 50 46 38 25 15 25 19 356
175 204 244 264 187 202 224 241 190 194 207 204 195 194 187 172 173 159 149 144 131 120 119 123 132 139 127 119 98 93 95 80 79 69 58 57 57 59 60 56 63 50 61 47 37 31 26 34 20
204 212 223 241 141 194 245 248 224 209 219 207 211 202 196 188 176 166 160 149 140 129 125 122 117 118 116 117 117 110 107 100 90 77 73 65 62 64 66 67 64 65 51 52 44 33 32 31 45
227 217 226 212 204 231 203 245 242 223 213 213 207 202 197 186 176 164 159 155 145 128 122 118 117 119 120 131 133 139 128 119 105 101 93 81 72 68 66 65 66 61 58 53 49 41 38 21 35
237 174 217 218 223 238 190 242 226 191 221 222 214 204 192 180 170 165 164 154 141 136 124 114 108 107 111 111 115 116 109 119 119 115 106 91 81 65 62 63 67 63 61 58 51 45 42 43 36
190 191 115 120 234 241 234 230 234 200 223 232 216 198 182 173 165 161 154 149 143 136 125 120 113 107 108 109 111 114 123 128 129 123 114 98 88 80 62 64 63 60 66 59 57 54 52 46 47
210 207 254 232 210 252 227 223 246 236 278 279 239 187 177 167 162 157 157 158 152 145 136 130 124 117 118 119 118 118 121 120 121 129 117 119 98 80 64 59 55 62 64 61 49 53 52 43 40
210 221 239 263 263 267 154 233 227 332 312 272 256 173 170 168 161 160 160 156 155 150 146 137 132 125 125 130 125 123 126 115 115 94 92 99 109 95 85 68 64 67 64 54 49 57 43 40 36
155 225 311 268 251 266 258 201 183 69 35 56 147 163 171 165 160 158 158 156 153 152 150 144 137 130 135 138 131 121 122 122 116 116 120 112 124 119 111 78 72 70 62 53 39 42 33 29 27
262 46 238 204 263 259 248 264 355 335 347 127 153 169 167 161 160 158 155 154 154 151 149 149 147 144 143 156 147 142 135 126 125 127 117 121 123 139 122 89 77 70 60 45 33 27 30 21 22
240 235 154 14 258 281 282 266 355 322 309 173 160 167 169 162 154 154 152 153 158 154 153 151 149 149 151 157 147 139 132 126 113 111 130 128 130 129 126 89 67 71 58 46 39 24 21 18 16
219 264 248 247 227 221 299 260 82 64 120 173 157 167 164 159 153 150 151 153 159 161 157 149 151 158 161 154 162 165 152 130 104 118 141 132 107 97 94 73 68 67 60 43 42 24 10 4 5